When you browse on this site, cookies collect data to enhance your experience and personalize the content and advertising you see.
Visit our Privacy Policy to learn more. By continuing to use the site, you agree to this use of cookies and data.
  • In Schweiz
  • Länderverzeichnis
  • Für 7 Tage
  • Wassertemperatur
  • Wetterkarte
  • Widgets
  • user-avatar
    Anmelden

    Stündliche Wetter Tibissa

    Heute, 27 Februar, Donnerstag

    Zeit Temperatur Niederschläge Wind Luftdruck Luftfeuchtigkeit
    00:00 +8°C° 0 mm 3 m/S 685 mmHg 88%
    01:00 +7°C° 0 mm 4 m/S 685 mmHg 93%
    02:00 +6°C° 0 mm 4 m/S 685 mmHg 92%
    03:00 +6°C° 0 mm 4 m/S 685 mmHg 92%
    04:00 +5°C° 0 mm 4 m/S 684 mmHg 91%
    05:00 +5°C° 0 mm 4 m/S 685 mmHg 89%
    06:00 +5°C° 0 mm 4 m/S 685 mmHg 87%
    07:00 +5°C° 0 mm 5 m/S 685 mmHg 86%
    08:00 +6°C° 0 mm 5 m/S 686 mmHg 77%
    09:00 +7°C° 0 mm 5 m/S 687 mmHg 68%
    10:00 +8°C° 0 mm 5 m/S 687 mmHg 59%
    11:00 +9°C° 0 mm 5 m/S 687 mmHg 50%
    12:00 +12°C° 0 mm 5 m/S 688 mmHg 42%
    13:00 +13°C° 0 mm 5 m/S 688 mmHg 34%
    14:00 +14°C° 0 mm 5 m/S 688 mmHg 32%
    15:00 +14°C° 0 mm 5 m/S 687 mmHg 31%
    16:00 +15°C° 0 mm 5 m/S 687 mmHg 29%
    17:00 +14°C° 0 mm 4 m/S 687 mmHg 35%
    18:00 +12°C° 0 mm 3 m/S 687 mmHg 40%
    19:00 +12°C° 0 mm 2 m/S 687 mmHg 46%
    20:00 +10°C° 0 mm 2 m/S 687 mmHg 51%
    21:00 +10°C° 0 mm 2 m/S 687 mmHg 56%
    22:00 +10°C° 0 mm 1 m/S 687 mmHg 62%
    23:00 +9°C° 0 mm 2 m/S 687 mmHg 63%

    Morgen, 28 Februar, Freitag

    Zeit Temperatur Niederschläge Wind Luftdruck Luftfeuchtigkeit
    00:00 +8°C° 0 mm 2 m/S 687 mmHg 63%
    01:00 +8°C° 0 mm 2 m/S 687 mmHg 64%
    02:00 +8°C° 0 mm 2 m/S 687 mmHg 64%
    03:00 +8°C° 0 mm 2 m/S 687 mmHg 64%
    04:00 +8°C° 0 mm 2 m/S 686 mmHg 63%
    05:00 +7°C° 0 mm 2 m/S 686 mmHg 64%
    06:00 +7°C° 0 mm 2 m/S 687 mmHg 64%
    07:00 +7°C° 0 mm 2 m/S 687 mmHg 64%
    08:00 +9°C° 0 mm 2 m/S 687 mmHg 54%
    09:00 +11°C° 0 mm 3 m/S 688 mmHg 44%
    10:00 +13°C° 0 mm 3 m/S 689 mmHg 34%
    11:00 +14°C° 0 mm 4 m/S 689 mmHg 32%
    12:00 +17°C° 0 mm 4 m/S 689 mmHg 29%
    13:00 +17°C° 0 mm 5 m/S 689 mmHg 27%
    14:00 +17°C° 0 mm 5 m/S 689 mmHg 26%
    15:00 +17°C° 0 mm 5 m/S 688 mmHg 26%
    16:00 +19°C° 0 mm 5 m/S 688 mmHg 26%
    17:00 +17°C° 0 mm 4 m/S 688 mmHg 32%
    18:00 +16°C° 0 mm 3 m/S 688 mmHg 38%
    19:00 +14°C° 0 mm 2 m/S 687 mmHg 43%
    20:00 +13°C° 0 mm 2 m/S 687 mmHg 46%
    21:00 +13°C° 0 mm 1 m/S 687 mmHg 48%
    22:00 +12°C° 0 mm 1 m/S 688 mmHg 50%
    23:00 +12°C° 0 mm 1 m/S 687 mmHg 49%

    übermorgen, 29 Februar, Samstag

    Zeit Temperatur Niederschläge Wind Luftdruck Luftfeuchtigkeit
    00:00 +10°C° 0 mm 2 m/S 687 mmHg 49%
    01:00 +10°C° 0 mm 2 m/S 687 mmHg 48%
    02:00 +10°C° 0 mm 2 m/S 686 mmHg 48%
    03:00 +9°C° 0 mm 3 m/S 686 mmHg 48%
    04:00 +9°C° 0 mm 3 m/S 686 mmHg 47%
    05:00 +9°C° 0 mm 3 m/S 685 mmHg 49%
    06:00 +8°C° 0 mm 4 m/S 685 mmHg 50%
    07:00 +7°C° 0 mm 4 m/S 685 mmHg 52%
    08:00 +10°C° 0 mm 5 m/S 686 mmHg 46%
    09:00 +13°C° 0 mm 6 m/S 686 mmHg 40%
    10:00 +15°C° 0 mm 7 m/S 687 mmHg 34%
    11:00 +17°C° 0 mm 8 m/S 687 mmHg 32%
    12:00 +18°C° 0 mm 8 m/S 687 mmHg 29%
    13:00 +19°C° 0 mm 9 m/S 687 mmHg 26%
    14:00 +20°C° 0 mm 8 m/S 686 mmHg 26%
    15:00 +20°C° 0 mm 7 m/S 686 mmHg 26%
    16:00 +20°C° 0 mm 7 m/S 685 mmHg 26%
    17:00 +19°C° 0 mm 5 m/S 685 mmHg 31%
    18:00 +17°C° 0 mm 4 m/S 685 mmHg 36%
    19:00 +14°C° 0 mm 3 m/S 685 mmHg 41%
    20:00 +13°C° 0 mm 3 m/S 685 mmHg 41%
    21:00 +13°C° 0 mm 3 m/S 685 mmHg 42%
    22:00 +13°C° 0 mm 3 m/S 685 mmHg 42%
    23:00 +12°C° 0 mm 3 m/S 685 mmHg 41%

    1 März, Sonntag

    Zeit Temperatur Niederschläge Wind Luftdruck Luftfeuchtigkeit
    00:00 +12°C° 0 mm 3 m/S 685 mmHg 40%
    01:00 +13°C° 0 mm 2 m/S 685 mmHg 39%
    02:00 +11°C° 0 mm 3 m/S 684 mmHg 38%
    03:00 +11°C° 0 mm 3 m/S 684 mmHg 38%
    04:00 +11°C° 0 mm 3 m/S 684 mmHg 38%
    05:00 +11°C° 0 mm 3 m/S 684 mmHg 38%
    06:00 +10°C° 0 mm 3 m/S 684 mmHg 39%
    07:00 +10°C° 0 mm 3 m/S 684 mmHg 39%
    08:00 +13°C° 0 mm 3 m/S 684 mmHg 35%
    09:00 +16°C° 0 mm 3 m/S 685 mmHg 30%
    10:00 +19°C° 0 mm 4 m/S 686 mmHg 25%
    11:00 +20°C° 0 mm 5 m/S 686 mmHg 23%
    12:00 +21°C° 0 mm 7 m/S 686 mmHg 22%
    13:00 +23°C° 0 mm 9 m/S 685 mmHg 20%
    14:00 +22°C° 0 mm 9 m/S 685 mmHg 20%
    15:00 +22°C° 0 mm 9 m/S 684 mmHg 20%
    16:00 +22°C° 0 mm 10 m/S 684 mmHg 20%
    17:00 +20°C° 0 mm 8 m/S 684 mmHg 27%
    18:00 +17°C° 0 mm 7 m/S 684 mmHg 33%
    19:00 +16°C° 0 mm 5 m/S 684 mmHg 39%
    20:00 +15°C° 0 mm 5 m/S 684 mmHg 45%
    21:00 +14°C° 0 mm 4 m/S 685 mmHg 51%
    22:00 +13°C° 0 mm 3 m/S 685 mmHg 57%
    23:00 +14°C° 0 mm 2 m/S 685 mmHg 60%

    2 März, Montag

    Zeit Temperatur Niederschläge Wind Luftdruck Luftfeuchtigkeit
    00:00 +13°C° 0 mm 2 m/S 684 mmHg 63%
    01:00 +12°C° 0 mm 2 m/S 684 mmHg 66%
    02:00 +11°C° 0 mm 1 m/S 683 mmHg 68%
    03:00 +11°C° 0 mm 1 m/S 683 mmHg 71%
    04:00 +10°C° 0 mm 1 m/S 682 mmHg 73%
    05:00 +11°C° 0 mm 1 m/S 682 mmHg 72%
    06:00 +10°C° 0 mm 2 m/S 682 mmHg 70%
    07:00 +10°C° 0 mm 2 m/S 682 mmHg 69%
    08:00 +12°C° 0 mm 4 m/S 682 mmHg 61%
    09:00 +14°C° 0 mm 7 m/S 683 mmHg 52%
    10:00 +16°C° 0 mm 9 m/S 683 mmHg 43%
    11:00 +16°C° 0 mm 10 m/S 683 mmHg 40%
    12:00 +17°C° 0 mm 12 m/S 683 mmHg 37%
    13:00 +18°C° 0 mm 13 m/S 682 mmHg 34%
    14:00 +18°C° 0 mm 12 m/S 681 mmHg 36%
    15:00 +17°C° 0 mm 11 m/S 681 mmHg 38%
    16:00 +17°C° 0 mm 10 m/S 680 mmHg 41%
    17:00 +16°C° 0 mm 10 m/S 680 mmHg 44%
    18:00 +15°C° 0 mm 9 m/S 680 mmHg 47%
    19:00 +15°C° 0 mm 9 m/S 679 mmHg 50%
    20:00 +13°C° 0.1 mm 8 m/S 679 mmHg 55%
    21:00 +12°C° 0.1 mm 8 m/S 679 mmHg 59%
    22:00 +11°C° 0.1 mm 7 m/S 680 mmHg 63%
    23:00 +10°C° 0 mm 6 m/S 679 mmHg 68%

    3 März, Dienstag

    Zeit Temperatur Niederschläge Wind Luftdruck Luftfeuchtigkeit
    00:00 +9°C° 0 mm 5 m/S 678 mmHg 73%
    01:00 +10°C° 0 mm 3 m/S 678 mmHg 77%
    02:00 +10°C° 0 mm 4 m/S 677 mmHg 75%
    03:00 +8°C° 0 mm 5 m/S 677 mmHg 73%
    04:00 +8°C° 0 mm 5 m/S 677 mmHg 71%
    05:00 +6°C° 0.3 mm 8 m/S 677 mmHg 71%
    06:00 +4°C° 0.3 mm 11 m/S 677 mmHg 70%
    07:00 +3°C° 0.3 mm 13 m/S 677 mmHg 70%
    08:00 +3°C° 0.1 mm 14 m/S 678 mmHg 72%
    09:00 +3°C° 0.1 mm 14 m/S 679 mmHg 74%
    10:00 +2°C° 0.1 mm 15 m/S 680 mmHg 76%
    11:00 +4°C° 0 mm 15 m/S 680 mmHg 66%
    12:00 +5°C° 0 mm 14 m/S 681 mmHg 57%
    13:00 +6°C° 0 mm 14 m/S 681 mmHg 48%
    14:00 +5°C° 0 mm 13 m/S 681 mmHg 53%
    15:00 +5°C° 0 mm 12 m/S 681 mmHg 59%
    16:00 +4°C° 0 mm 11 m/S 681 mmHg 64%
    17:00 +5°C° 0 mm 10 m/S 681 mmHg 65%
    18:00 +5°C° 0 mm 9 m/S 682 mmHg 65%
    19:00 +5°C° 0 mm 9 m/S 682 mmHg 65%
    20:00 +4°C° 0 mm 8 m/S 682 mmHg 67%
    21:00 +3°C° 0 mm 7 m/S 683 mmHg 68%
    22:00 +3°C° 0 mm 6 m/S 683 mmHg 70%
    23:00 +2°C° 0 mm 5 m/S 683 mmHg 68%
    Mehr zeigen